Weather History for Roosevelt Roads, PR

Change the Weather History Date:

Wednesday, January 2, 2013

  Actual Average Record
Temperature  
Mean Temperature 77 °F -  
Max Temperature 82 °F 81 °F 85 °F (1998)
Min Temperature 72 °F 70 °F 68 °F (2001)
Cooling Degree Days 12    
Growing Degree Days 27 (Base 50)    
Moisture  
Dew Point 68 °F    
Average Humidity 70    
Maximum Humidity 84    
Minimum Humidity 56    
Precipitation  
Precipitation 0.00 in - - ()
Sea Level Pressure  
Sea Level Pressure 30.03 in    
Wind  
Wind Speed 10 mph (East)    
Max Wind Speed 15 mph    
Max Gust Speed 21 mph    
Visibility 10 miles    
Events      
Averages and records for this station are not official NWS values.
T = Trace of Precipitation, MM = Missing Value Source: NWS Daily Summary

Daily Weather History Graph

Daily Weather History Graph

Search for Another Location

Airport:

Trip Planner

Search our weather history database for the weather conditions in past years. The results will help you decide how hot, cold, wet, or windy it might be!

Date:

Astronomy

Jan. 02, 2013 Rise Set
Actual Time 6:54 AM AST 5:58 PM AST
Civil Twilight 6:31 AM AST 6:22 PM AST
Nautical Twilight 6:04 AM AST 6:49 PM AST
Astronomical Twilight 5:37 AM AST 7:16 PM AST
Moon 10:38 PM AST (1/2) 10:18 AM AST (1/2)
Length of Visible Light 11h 51m
Length of Day
11h 03m
Waning Gibbous, 75% of the Moon is Illuminated
Jan 2
Waning Gibbous
Jan 4
Last Quarter
Jan 11
New
Jan 18
First Quarter
Jan 27
Full

Hourly Weather History & Observations

Time (AST) Temp. Heat Index Dew Point Humidity Pressure Visibility Wind Dir Wind Speed Gust Speed Precip Events Conditions
12:53 AM 78.1 °F - 69.1 °F 74% 30.03 in 10.0 mi ENE 10.4 mph - N/A   Partly Cloudy
1:53 AM 78.1 °F - 70.0 °F 76% 30.01 in 10.0 mi ENE 10.4 mph 17.3 mph N/A   Partly Cloudy
2:44 AM 78.8 °F - 69.8 °F 74% 29.99 in 10.0 mi ENE 10.4 mph - N/A   Mostly Cloudy
2:53 AM 78.1 °F - 70.0 °F 76% 29.99 in 10.0 mi ENE 9.2 mph - N/A   Mostly Cloudy
3:53 AM 78.1 °F - 69.1 °F 74% 29.98 in 10.0 mi East 11.5 mph - N/A   Partly Cloudy
4:53 AM 77.0 °F - 69.1 °F 76% 29.99 in 10.0 mi East 9.2 mph - N/A   Partly Cloudy
5:53 AM 77.0 °F - 64.9 °F 66% 30.00 in 10.0 mi East 9.2 mph - N/A   Clear
6:53 AM 75.9 °F - 68.0 °F 76% 30.02 in 10.0 mi East 6.9 mph - N/A   Clear
7:53 AM 78.1 °F - 70.0 °F 76% 30.04 in 10.0 mi East 8.1 mph - N/A   Partly Cloudy
8:53 AM 80.1 °F 82.7 °F 68.0 °F 67% 30.06 in 10.0 mi ESE 10.4 mph 17.3 mph N/A   Scattered Clouds
9:53 AM 81.0 °F 83.8 °F 68.0 °F 65% 30.07 in 10.0 mi ESE 15.0 mph - N/A   Partly Cloudy
10:53 AM 82.9 °F 85.8 °F 68.0 °F 60% 30.07 in 10.0 mi ESE 12.7 mph 18.4 mph N/A   Clear
11:53 AM 82.9 °F 85.8 °F 68.0 °F 60% 30.07 in 10.0 mi ESE 13.8 mph 20.7 mph N/A   Scattered Clouds
12:53 PM 82.9 °F 85.4 °F 66.9 °F 58% 30.05 in 10.0 mi ESE 15.0 mph - N/A   Clear
1:53 PM 82.9 °F 85.4 °F 66.9 °F 58% 30.02 in 10.0 mi East 11.5 mph - N/A   Clear
2:27 PM 82.4 °F 85.4 °F 68.0 °F 62% 30.01 in 10.0 mi ESE 12.7 mph - N/A   Partly Cloudy
2:53 PM 82.9 °F 85.0 °F 66.0 °F 56% 30.01 in 10.0 mi ESE 11.5 mph - N/A   Clear
3:53 PM 82.0 °F 83.8 °F 64.9 °F 56% 30.01 in 10.0 mi ESE 10.4 mph - N/A   Clear
4:53 PM 80.1 °F 81.9 °F 64.9 °F 60% 30.01 in 10.0 mi East 6.9 mph - N/A   Clear
5:53 PM 78.1 °F - 66.0 °F 66% 30.01 in 10.0 mi ESE 5.8 mph - N/A   Clear
6:53 PM 72.0 °F - 66.0 °F 81% 30.03 in 10.0 mi Calm Calm - N/A   Clear
7:53 PM 72.0 °F - 66.9 °F 84% 30.05 in 10.0 mi Calm Calm - N/A   Clear
8:53 PM 77.0 °F - 68.0 °F 74% 30.06 in 10.0 mi East 3.5 mph - N/A   Clear
9:53 PM 77.0 °F - 69.1 °F 76% 30.07 in 10.0 mi East 4.6 mph - N/A   Clear
10:53 PM 77.0 °F - 70.0 °F 79% 30.07 in 10.0 mi East 5.8 mph - N/A   Clear
11:53 PM 77.0 °F - 70.0 °F 79% 30.06 in 10.0 mi East 5.8 mph - N/A   Clear